Find Starlink 32305

NORAD ID: 61523 Int'l Des: 2024-183 Owner: SPXS Country: US Constellation: starlink operational
LEOCIRCULAR

当前视图

正在加载3D地球...

About Starlink 32305

Starlink 32305 (NORAD 61523) is a starlink constellation satellite (v2 mini) launched Oct 15, 2024 by SPXS of US. It operates in LEO, CIRCULAR orbit with a mass of 730.00 kg.

即将过境

Passes for default location (London). Set your location on the main map for personalized predictions.

高度历史

Loading altitude history...

两行轨道根数

1 61523U 24183Q 26255.28977129 -.00000432 00000-0 -16462-5 0 9995
2 61523 53.1610 354.1528 0001608 107.1964 252.9215 15.34392896108247
Epoch: Sep 12, 2026 • Age: 14 hours

当前状态

高度 463.1 km
远地点 / 近地点 N/A
速度 7.64 km/s
星下点 7.77°N, 49.37°E
发射日期 Oct 15, 2024
运行时间 1.9 years
类型 internet

技术详情

分类 Payload
质量 730.00 kg
干质量 700.00 kg
总质量 730.00 kg
长度 0.30 m
直径 4.10 m
跨度 29.00 m
形状 Box + pan
制造商 SPXS
平台类型 Starlink V2M
阶段状态 In Orbit
所有者/国家 SPXS/US

Most Searched